Location: Dompnac
(44.5644°N, 4.1026°E)
Time: 09:53:22
(UTC+00:00)

Cosmos 2026 Rocket - Pass Details

Date: 20 January 2021
Orbit: 940 x 1000 km, 82.9° (Epoch: 26 February)

Event Time Altitude Azimuth Distance (km) Brightness Sun altitude
Rises 19:30:59 0° 202° (SSW) 3,598 7.2 -30.8°
Reaches altitude 10° 19:33:31 10° 207° (SSW) 2,663 6.5 -31.3°
Maximum altitude 19:39:26 51° 283° (WNW) 1,183 4.6 -32.3°
Drops below altitude 10° 19:45:28 10° 359° (N) 2,716 6.4 -33.4°
Sets 19:48:06 0° 5° (N) 3,676 7.0 -33.9°
